Flag for U.S.A. Weather past 2 weeks in Mountain View, California, U.S.A.

Now
78 °F

Sunny.


Feels Like: 79 °F
Forecast: 60 / 84 °F
Wind: 6 mph from North

Location: Moffett Field

Current Time: Sep 1, 2014 at 12:42:23 PM

Latest Report: Sep 1, 2014 at 11:56 AM


Visibility: 10 mi

Pressure: 29.84 "Hg

Humidity: 50%

Dew point: 58 °F

Location of Mountain ViewLocation

Historic Weather in Mountain View — Graph

°F

Mountain View temperature yesterday

Maximum temperature yesterday: 78 °F (at 2:56 PM)
Minimum temperature yesterday: 61 °F (at 4:56 AM)
Average temperature yesterday: 69 °F

Past Weeks' High & Low Weather Summary

 TemperatureHumidityPressure
High80 °F (Aug 27, 2:56 PM)90% (Aug 28, 2:56 AM)30.09 "Hg (Aug 28, 2:56 AM)
Low59 °F (Aug 26, 5:56 AM)42% (Aug 30, 1:56 PM)29.80 "Hg (Aug 19, 4:56 PM)
Average68 °F70%29.93 "Hg
* Reported Aug 17 10:56 AM — Sep 1 10:56 AM, Mountain View, Weather by CustomWeather, © 2014

Note: Actual official high and low records may vary slightly from our data, if they occured in-between our weather recording intervals... More about our weather records

Advertising

Mountain View weather history for previous 24 hours

 ConditionsComfort  
Time TempWeatherWind HumidityBarometerVisibility
10:56 AM
Sep 1
76 °FSunny.5 mph54%29.86 "Hg10 mi
9:56 AM69 °FSunny.No wind68%29.87 "Hg10 mi
8:56 AM68 °FSunny.No wind70%29.87 "Hg10 mi
7:56 AM64 °FSunny.No wind78%29.87 "Hg10 mi
6:56 AM61 °FClear.No wind81%29.86 "Hg10 mi
5:56 AM61 °FClear.No wind81%29.85 "Hg10 mi
4:56 AM62 °FClear.No wind80%29.85 "Hg10 mi
3:56 AM62 °FClear.No wind80%29.85 "Hg10 mi
2:56 AM63 °FClear.No wind81%29.85 "Hg10 mi
1:56 AM64 °FClear.No wind78%29.85 "Hg10 mi
12:56 AM64 °FClear.3 mph75%29.87 "Hg10 mi
11:56 PM
Aug 31
64 °FClear.5 mph78%29.87 "Hg10 mi
10:56 PM65 °FClear.5 mph76%29.87 "Hg10 mi
9:56 PM66 °FClear.3 mph73%29.88 "Hg10 mi
8:56 PM68 °FClear.7 mph70%29.87 "Hg10 mi
7:56 PM69 °FSunny.9 mph70%29.86 "Hg10 mi
6:56 PM73 °FSunny.13 mph62%29.85 "Hg10 mi
5:56 PM75 °FSunny.15 mph58%29.85 "Hg10 mi
4:56 PM75 °FSunny.13 mph60%29.85 "Hg10 mi
3:56 PM78 °FSunny.13 mph48%29.87 "Hg10 mi
2:56 PM78 °FSunny.8 mph50%29.89 "Hg10 mi
1:56 PM76 °FSunny.8 mph54%29.91 "Hg10 mi
12:56 PM75 °FSunny.10 mph58%29.93 "Hg10 mi
Weather by CustomWeather, © 2014

See weather overviewHow to use our weather pages